Location: Ravensburg
(48.5621°N, 13.4088°E)
Time: 14:09:17
(UTC+02:00)

ISS - Pass Details

Date: 08 January 2018
Orbit: 402 x 409 km, 51.6° (Epoch: 21 August)

Event Time Altitude Azimuth Distance (km) Brightness Sun altitude
Exits shadow 05:12:41 24° 63° (ENE) 923 -1.5 -26.3°
Drops below altitude 10° 05:14:17 10° 76° (ENE) 1,514 0.0 -26.0°
Sets 05:16:26 0° 82° (E) 2,383 1.3 -25.7°
